Tucson, AZ

10:19 PM MST on July 26, 2017 (GMT -0700)
Tucson International

Weather History for KTUS - August, 2013

Change the Weather History Date:

Tuesday, August 6, 2013

  Actual Average Record
Temperature  
Mean Temperature 77 °F 86 °F  
Max Temperature 84 °F 97 °F 109 °F (1995)
Min Temperature 70 °F 74 °F 63 °F (1928)
Degree Days  
Heating Degree Days 0 0  
Month to date heating degree days 0 0  
Since 1 June heating degree days 0 0  
Since 1 July heating degree days 0 0  
Cooling Degree Days 12 21  
Month to date cooling degree days 122 126  
Year to date cooling degree days 2294 1905  
Since 1 June cooling degree days 1583 1403  
Growing Degree Days 27 (Base 50)    
Moisture  
Dew Point 64 °F    
Average Humidity 68    
Maximum Humidity 90    
Minimum Humidity 46    
Precipitation  
Precipitation 0.03 in 0.08 in 1.88 in (1955)
Month to date precipitation 0.20 0.51  
Year to date precipitation 4.57 6.03  
Snow  
Snow 0.00 in - - ()
Month to date snowfall 0.0  
Snow Depth 0.00 in    
Sea Level Pressure  
Sea Level Pressure 29.94 in    
Wind  
Wind Speed 6 mph (West)    
Max Wind Speed 18 mph    
Max Gust Speed 26 mph    
Visibility 10 miles    
Events Rain    
T = Trace of Precipitation, MM = Missing Value Source: NWS Daily Summary

Daily Weather History Graph

Daily Weather History Graph

Search for Another Location

Airport or City:

Trip Planner

Search our weather history database for the weather conditions in past years. The results will help you decide how hot, cold, wet, or windy it might be!

Date:

Astronomy

Aug. 06, 2013 Rise Set
Actual Time 5:42 AM MST 7:16 PM MST
Civil Twilight 5:16 AM MST 7:42 PM MST
Nautical Twilight 4:44 AM MST 8:14 PM MST
Astronomical Twilight 4:11 AM MST 8:47 PM MST
Moon 5:33 AM MST (8/6) 6:58 PM MST (8/6)
Length of Visible Light 14h 26m
Length of Day
13h 33m
Waning Crescent, 0% of the Moon is Illuminated
Aug 6
Waning Crescent
Aug 6
New
Aug 14
First Quarter
Aug 20
Full
Aug 28
Last Quarter

Hourly Weather History & Observations

Time (MST) Temp. Heat Index Dew Point Humidity Pressure Visibility Wind Dir Wind Speed Gust Speed Precip Events Conditions
12:53 AM 71.1 °F - 66.0 °F 84% 29.92 in 10.0 mi SW 5.8 mph - 0.03 in   Mostly Cloudy
1:53 AM 72.0 °F - 66.9 °F 84% 29.92 in 10.0 mi Calm Calm - N/A   Overcast
2:53 AM 72.0 °F - 68.0 °F 87% 29.90 in 10.0 mi North 3.5 mph - 0.00 in Rain Light Rain
3:53 AM 73.0 °F - 66.9 °F 81% 29.90 in 10.0 mi SE 4.6 mph - 0.00 in   Overcast
4:53 AM 72.0 °F - 66.9 °F 84% 29.91 in 10.0 mi South 4.6 mph - N/A   Overcast
5:53 AM 72.0 °F - 66.9 °F 84% 29.93 in 10.0 mi Calm Calm - N/A   Overcast
6:53 AM 73.9 °F - 66.9 °F 79% 29.94 in 10.0 mi Calm Calm - N/A   Overcast
7:53 AM 75.0 °F - 68.0 °F 79% 29.96 in 10.0 mi WSW 3.5 mph - N/A   Overcast
8:53 AM 77.0 °F - 63.0 °F 62% 29.98 in 10.0 mi NNW 5.8 mph - N/A   Mostly Cloudy
9:53 AM 80.1 °F 81.2 °F 62.1 °F 54% 29.99 in 10.0 mi NNW 10.4 mph - N/A   Partly Cloudy
10:53 AM 82.0 °F 83.1 °F 63.0 °F 52% 29.98 in 10.0 mi NNW 11.5 mph 17.3 mph N/A   Clear
11:53 AM 82.9 °F 83.7 °F 62.1 °F 49% 29.96 in 10.0 mi NNW 17.3 mph - N/A   Clear
12:53 PM 80.1 °F 81.5 °F 63.0 °F 56% 29.96 in 10.0 mi West 13.8 mph - N/A   Scattered Clouds
1:11 PM 78.1 °F - 64.0 °F 62% 30.08 in 10.0 mi West 15.0 mph - 0.00 in Rain Light Rain
1:53 PM 78.1 °F - 62.1 °F 58% 29.96 in 10.0 mi West 15.0 mph - 0.00 in   Scattered Clouds
2:53 PM 77.0 °F - 64.0 °F 64% 29.95 in 10.0 mi WNW 8.1 mph - 0.00 in   Mostly Cloudy
3:53 PM 81.0 °F 81.9 °F 62.1 °F 52% 29.94 in 10.0 mi West 8.1 mph - N/A   Partly Cloudy
4:53 PM 82.0 °F 82.7 °F 61.0 °F 49% 29.92 in 10.0 mi South 6.9 mph - N/A   Clear
5:53 PM 82.0 °F 82.1 °F 59.0 °F 45% 29.90 in 10.0 mi Calm Calm - N/A   Partly Cloudy
6:53 PM 80.1 °F 80.9 °F 60.1 °F 50% 29.91 in 10.0 mi West 6.9 mph - N/A   Clear
7:53 PM 79.0 °F - 60.1 °F 52% 29.91 in 10.0 mi South 6.9 mph - N/A   Clear
8:53 PM 78.1 °F - 62.1 °F 58% 29.92 in 10.0 mi South 6.9 mph - N/A   Clear
9:53 PM 75.9 °F - 64.0 °F 67% 29.93 in 10.0 mi SSW 3.5 mph - N/A   Clear
10:53 PM 75.0 °F - 64.0 °F 69% 29.94 in 10.0 mi Calm Calm - N/A   Clear
11:53 PM 73.9 °F - 64.9 °F 73% 29.94 in 10.0 mi ESE 4.6 mph - N/A   Clear